TELSTAR 19V (43562 NORAD) Tracking and Keplerian Element Data

This shows tracking and keplerian element data for the satellite.

Feedback or suggestion? Click here.




ElementValue
Catalog43562
NameTELSTAR 19V
Epoch Orbit377
Epoch Day193.85049775
Epoch Year2019
RAAN87.1579
Inclination0.0152
Eccentricity0.0002136
Argument of Perigee48.5505
Mean Anonmoly37.8833
Mean Motion1.00271864
Decay Rate-2.91E-06
L11 43562U 18059A 19193.85049775 -.00000291 00000-0 00000-0 0 9994
L22 43562 0.0152 87.1579 0002136 48.5505 37.8833 1.00271864 3774

Live tracking and technical data element details for TELSTAR 19V (NORAD 43562). TELSTAR 19V can be tracked NOW for your location showing map with azimuth and elevation plus other details from your city location.

Track the satellite on the map from your city or location and see movement details for azimuth, elevation, latitude, longitude, range, height, and movement on the map or in text.







IsCatalogInMostPopularTable: catalog: 43562, numindb: 449
Update: records affected: 1



GetName: 43562 TELSTAR 19V

Hit Count: updated at: Tue, 16 Jul 2019 20:41:17 GMT